Luverne, MN

3:21 PM CST on February 08, 2016 (GMT -0600)
Luverne

Weather History for KLYV - November, 2013

Change the Weather History Date:

Sunday, November 3, 2013

  Actual Average (KFSD) Record (KFSD)
Temperature  
Mean Temperature 44 °F 40 °F  
Max Temperature 57 °F 50 °F 76 °F (1978)
Min Temperature 32 °F 29 °F -2 °F (1991)
Degree Days  
Heating Degree Days 20 25  
Month to date heating degree days 74  
Since 1 July heating degree days 814  
Cooling Degree Days 0 0  
Month to date cooling degree days 0  
Year to date cooling degree days 690  
Moisture  
Dew Point 31 °F    
Average Humidity 62    
Maximum Humidity 93    
Minimum Humidity 35    
Precipitation  
Precipitation 0.00 in 0.04 in 0.30 in (1990)
Month to date precipitation 0.13  
Year to date precipitation 24.46  
Snow  
Snow 0.00 in 0.20 in 4.60 in (1990)
Month to date snowfall 0.5  
Since 1 July snowfall 1.8  
Since 1 September snowfall 1.8  
Snow Depth -    
Sea Level Pressure  
Sea Level Pressure 29.83 in    
Wind  
Wind Speed 11 mph (SSE)    
Max Wind Speed 34 mph    
Max Gust Speed 45 mph    
Visibility 10 miles    
Events      
T = Trace of Precipitation, MM = Missing Value Source: NWS Daily Summary

Daily Weather History Graph

Daily Weather History Graph

Search for Another Location

Airport or City:

Trip Planner

Search our weather history database for the weather conditions in past years. The results will help you decide how hot, cold, wet, or windy it might be!

Date:

Astronomy

Nov. 03, 2013 Rise Set
Actual Time 7:03 AM CST 5:12 PM CST
Civil Twilight 6:33 AM CST 5:42 PM CST
Nautical Twilight 5:59 AM CST 6:16 PM CST
Astronomical Twilight 5:26 AM CST 6:50 PM CST
Moon 7:09 AM CST (11/3) 5:27 PM CST (11/3)
Length of Visible Light 11h 09m
Length of Day
10h 09m
New Moon, 0% of the Moon is Illuminated
Nov 3
New Moon
Nov 9
First Quarter
Nov 17
Full
Nov 25
Last Quarter
Dec 2
New

Hourly Weather History & Observations

Time (CST) Temp. Windchill Dew Point Humidity Pressure Visibility Wind Dir Wind Speed Gust Speed Precip Events Conditions
12:13 AM 33.8 °F - 30.2 °F 87% 30.02 in 10.0 mi Calm Calm - N/A   Clear
12:33 AM 32.0 °F - 28.4 °F 87% 30.03 in 10.0 mi Calm Calm - N/A   Clear
12:53 AM 32.0 °F - 30.2 °F 93% 30.02 in 10.0 mi Calm Calm - N/A   Clear
1:13 AM 32.0 °F - 28.4 °F 87% 30.02 in 10.0 mi Calm Calm - N/A   Clear
1:33 AM 33.8 °F - 30.2 °F 87% 30.02 in 10.0 mi Calm Calm - N/A   Clear
1:53 AM 32.0 °F - 30.2 °F 93% 30.02 in 10.0 mi Calm Calm - N/A   Clear
1:13 AM 32.0 °F - 28.4 °F 87% 30.01 in 10.0 mi Calm Calm - N/A   Clear
1:33 AM 32.0 °F - 28.4 °F 87% 30.00 in 10.0 mi Calm Calm - N/A   Clear
1:53 AM 32.0 °F 28.7 °F 28.4 °F 87% 30.00 in 10.0 mi SSE 3.5 mph - N/A   Clear
2:13 AM 32.0 °F 27.5 °F 28.4 °F 87% 29.99 in 10.0 mi SSE 4.6 mph - N/A   Clear
2:33 AM 33.8 °F 29.6 °F 30.2 °F 87% 29.99 in 10.0 mi SSE 4.6 mph - N/A   Clear
2:53 AM 33.8 °F 27.7 °F 30.2 °F 87% 29.97 in 10.0 mi SE 6.9 mph - N/A   Clear
3:13 AM 35.6 °F 29.9 °F 32.0 °F 87% 29.97 in 10.0 mi SSE 6.9 mph - N/A   Clear
3:33 AM 33.8 °F 28.6 °F 30.2 °F 87% 29.96 in 10.0 mi SSE 5.8 mph - N/A   Clear
3:53 AM 33.8 °F 27.7 °F 30.2 °F 87% 29.96 in 10.0 mi SSE 6.9 mph - N/A   Clear
4:13 AM 33.8 °F 27.7 °F 30.2 °F 87% 29.95 in 10.0 mi SSE 6.9 mph - N/A   Clear
4:33 AM 33.8 °F 26.4 °F 32.0 °F 93% 29.94 in 10.0 mi SSE 9.2 mph - N/A   Clear
4:53 AM 35.6 °F 28.6 °F 32.0 °F 87% 29.93 in 10.0 mi SSE 9.2 mph - N/A   Clear
5:13 AM 35.6 °F 28.6 °F 32.0 °F 87% 29.92 in 10.0 mi SSE 9.2 mph - N/A   Clear
5:33 AM 37.4 °F 29.8 °F 32.0 °F 81% 29.92 in 10.0 mi SSE 11.5 mph - N/A   Clear
5:53 AM 35.6 °F 27.5 °F 32.0 °F 87% 29.91 in 10.0 mi SSE 11.5 mph - N/A   Clear
6:13 AM 37.4 °F 29.8 °F 32.0 °F 81% 29.90 in 10.0 mi SSE 11.5 mph - N/A   Clear
6:33 AM 37.4 °F 30.8 °F 32.0 °F 81% 29.90 in 10.0 mi SSE 9.2 mph - N/A   Clear
6:53 AM 37.4 °F 30.3 °F 32.0 °F 81% 29.90 in 10.0 mi SSE 10.4 mph - N/A   Clear
7:13 AM 37.4 °F 29.3 °F 32.0 °F 81% 29.90 in 10.0 mi SSE 12.7 mph - N/A   Clear
7:33 AM 37.4 °F 28.5 °F 32.0 °F 81% 29.89 in 10.0 mi SSE 15.0 mph - N/A   Clear
7:53 AM 41.0 °F 33.5 °F 32.0 °F 70% 29.89 in 10.0 mi SSE 13.8 mph - N/A   Clear
8:13 AM 41.0 °F 32.8 °F 32.0 °F 70% 29.89 in 10.0 mi SSE 16.1 mph 23.0 mph N/A   Clear
8:33 AM 42.8 °F 34.5 °F 32.0 °F 66% 29.88 in 10.0 mi SSE 18.4 mph 27.6 mph N/A   Clear
8:53 AM 44.6 °F 35.5 °F 32.0 °F 61% 29.87 in 10.0 mi South 25.3 mph 31.1 mph N/A   Clear
9:13 AM 46.4 °F 38.1 °F 32.0 °F 57% 29.86 in 10.0 mi SSE 24.2 mph 36.8 mph N/A   Clear
9:33 AM 50.0 °F - 30.2 °F 47% 29.85 in 10.0 mi South 23.0 mph 35.7 mph N/A   Clear
9:53 AM 50.0 °F - 30.2 °F 47% 29.84 in 10.0 mi SSE 25.3 mph 35.7 mph N/A   Clear
10:13 AM 50.0 °F - 28.4 °F 43% 29.83 in 10.0 mi South 27.6 mph 34.5 mph N/A   Clear
10:33 AM 53.6 °F - 28.4 °F 38% 29.81 in 10.0 mi South 27.6 mph 41.4 mph N/A   Clear
10:53 AM 51.8 °F - 28.4 °F 41% 29.80 in 10.0 mi SSE 27.6 mph 36.8 mph N/A   Clear
11:13 AM 53.6 °F - 28.4 °F 38% 29.79 in 10.0 mi South 32.2 mph 42.6 mph N/A   Clear
11:33 AM 53.6 °F - 26.6 °F 35% 29.78 in 10.0 mi South 28.8 mph 44.9 mph N/A   Clear
11:53 AM 53.6 °F - 28.4 °F 38% 29.76 in 10.0 mi South 29.9 mph 42.6 mph N/A   Clear
12:13 PM 55.4 °F - 28.4 °F 36% 29.75 in 10.0 mi South 31.1 mph 39.1 mph N/A   Clear
12:33 PM 55.4 °F - 28.4 °F 36% 29.74 in 10.0 mi South 25.3 mph 38.0 mph N/A   Clear
12:53 PM 55.4 °F - 28.4 °F 36% 29.74 in 10.0 mi South 29.9 mph 40.3 mph N/A   Clear
1:13 PM 57.2 °F - 30.2 °F 36% 29.74 in 10.0 mi South 34.5 mph 43.7 mph N/A   Clear
1:33 PM 55.4 °F - 30.2 °F 38% 29.73 in 10.0 mi South 32.2 mph 44.9 mph N/A   Clear
1:53 PM 55.4 °F - 32.0 °F 41% 29.73 in 10.0 mi South 26.5 mph 36.8 mph N/A   Clear
2:13 PM 55.4 °F - 32.0 °F 41% 29.72 in 10.0 mi South 31.1 mph 39.1 mph N/A   Clear
2:33 PM 55.4 °F - 32.0 °F 41% 29.71 in 10.0 mi South 33.4 mph 42.6 mph N/A   Clear
2:53 PM 55.4 °F - 32.0 °F 41% 29.71 in 10.0 mi South 28.8 mph 41.4 mph N/A   Clear
3:13 PM 55.4 °F - 32.0 °F 41% 29.70 in 10.0 mi South 26.5 mph 34.5 mph N/A   Clear
3:33 PM 55.4 °F - 32.0 °F 41% 29.70 in 10.0 mi South 28.8 mph 36.8 mph N/A   Clear
3:53 PM 55.4 °F - 32.0 °F 41% 29.69 in 10.0 mi South 16.1 mph 32.2 mph N/A   Clear
4:13 PM 53.6 °F - 32.0 °F 44% 29.69 in 10.0 mi South 18.4 mph 26.5 mph N/A   Clear
4:33 PM 53.6 °F - 32.0 °F 44% 29.70 in 10.0 mi SSE 18.4 mph 27.6 mph N/A   Clear
4:53 PM 53.6 °F - 32.0 °F 44% 29.71 in 10.0 mi South 24.2 mph 31.1 mph N/A   Clear
5:13 PM 53.6 °F - 32.0 °F 44% 29.71 in 10.0 mi SSE 21.9 mph 29.9 mph N/A   Clear
5:33 PM 53.6 °F - 32.0 °F 44% 29.71 in 10.0 mi SSE 20.7 mph 27.6 mph N/A   Clear
5:53 PM 51.8 °F - 32.0 °F 47% 29.72 in 10.0 mi SSE 18.4 mph 23.0 mph N/A   Clear
6:13 PM 51.8 °F - 32.0 °F 47% 29.72 in 10.0 mi SSE 17.3 mph 24.2 mph N/A   Clear
6:33 PM 50.0 °F - 32.0 °F 50% 29.72 in 10.0 mi SSE 17.3 mph 23.0 mph N/A   Clear
6:53 PM 50.0 °F - 32.0 °F 50% 29.72 in 10.0 mi SSE 18.4 mph 24.2 mph N/A   Clear
7:13 PM 50.0 °F - 33.8 °F 54% 29.72 in 10.0 mi SSE 16.1 mph 19.6 mph N/A   Clear
7:33 PM 50.0 °F - 33.8 °F 54% 29.73 in 10.0 mi SSE 15.0 mph 23.0 mph N/A   Clear
7:53 PM 50.0 °F - 33.8 °F 54% 29.74 in 10.0 mi SSE 13.8 mph 24.2 mph N/A   Clear
8:13 PM 50.0 °F - 33.8 °F 54% 29.73 in 10.0 mi SSE 13.8 mph 19.6 mph N/A   Clear
8:33 PM 48.2 °F - 33.8 °F 58% 29.73 in 10.0 mi SSE 12.7 mph - N/A   Clear
8:53 PM 46.4 °F 41.1 °F 33.8 °F 62% 29.73 in 10.0 mi SSE 11.5 mph - N/A   Clear
9:13 PM 46.4 °F 41.1 °F 33.8 °F 62% 29.74 in 10.0 mi SSE 11.5 mph - N/A   Clear
9:33 PM 46.4 °F 40.7 °F 33.8 °F 62% 29.74 in 10.0 mi SSE 12.7 mph 17.3 mph N/A   Clear
9:53 PM 46.4 °F 40.7 °F 33.8 °F 62% 29.74 in 10.0 mi SSE 12.7 mph - N/A   Clear
10:13 PM 46.4 °F 40.7 °F 33.8 °F 62% 29.74 in 10.0 mi South 12.7 mph - N/A   Clear
10:33 PM 46.4 °F 40.1 °F 33.8 °F 62% 29.74 in 10.0 mi South 15.0 mph - N/A   Clear
10:53 PM 46.4 °F 40.1 °F 35.6 °F 66% 29.74 in 10.0 mi South 15.0 mph - N/A   Clear